Tracking 19490 objects as of 24-Jan-2019
HD Live streaming from Space Station
objects crossing your sky now

LEMUR 2 DAISY-HARPER

Track LEMUR 2 DAISY-HARPER now!
10-day predictions
LEMUR 2 DAISY-HARPER is classified as:


NORAD ID: 43889
Int'l Code: 2018-111P
Perigee: 575.5 km
Apogee: 592.7 km
Inclination: 97.7 °
Period: 96.2 minutes
Semi major axis: 6955 km
RCS: Unknown
Launch date: December 27, 2018
Source: United States (US)
Launch site: VOSTOCHNY COSMODROME (VOSTO)
aabbcc
Your satellite tracking list
Your tracking list is empty




NASA's NSSDC Master Catalog

Two Line Element Set (TLE):
1 43889U 18111P   19023.68997145  .00001188  00000-0  10888-3 0  9994
2 43889  97.7299 293.7928 0012400 142.4379 217.7711 14.96748865  4103
Source of the keplerian elements: AFSPC